Waarnemingen

Advertentie
Mijn weer
Arjeplog, Zweden (2124): temperatuur & dauwpunt: 20.05.2018 23:00:00 - 26.05.2018 23:00:00 (CEST)Arjeplog, Zweden (2124): windsnelheid & windstoten: 20.05.2018 23:00:00 - 26.05.2018 23:00:00 (CEST)Arjeplog, Zweden (2124): windrichting: 20.05.2018 23:00:00 - 26.05.2018 23:00:00 (CEST)Arjeplog, Zweden (2124): luchtdruk: 20.05.2018 23:00:00 - 26.05.2018 23:00:00 (CEST)Arjeplog, Zweden (2124): zicht: 20.05.2018 23:00:00 - 26.05.2018 23:00:00 (CEST)Arjeplog, Zweden (2124): neerslag: 20.05.2018 23:00:00 - 26.05.2018 23:00:00 (CEST)
Datum & Tijd tt [°C] td [°C] ff [km/u] ff [kn] fx [km/u] fx [kn] dd ppp [hPa] vv [km] rr [mm]
26.05.2018 23:00:00 - - - - - - - - - -
26.05.2018 22:00:00 7,3 -1,4 10 5 22 12 NNW 1031,9 48 0,0
26.05.2018 21:00:00 8,5 -3,1 10 6 31 17 NW 1031,7 47 0,0
26.05.2018 20:00:00 9,7 -2,9 14 7 28 15 NW 1031,5 48 0,0
26.05.2018 19:00:00 10,3 -2,7 11 6 35 19 NW 1030,9 41 0,0
26.05.2018 18:00:00 10,5 -2,9 14 8 31 17 NNW 1031,0 37 0,0
26.05.2018 17:00:00 10,8 -1,3 16 8 30 16 W 1031,1 32 0,0
26.05.2018 16:00:00 10,6 -1,2 13 7 32 18 W 1031,3 34 0,0
26.05.2018 15:00:00 10,4 -1,3 14 8 29 15 W 1031,3 38 0,0
26.05.2018 14:00:00 12,1 -2,5 10 6 29 15 WNW 1030,9 38 0,0
26.05.2018 13:00:00 10,7 -2,4 12 6 29 16 NNW 1031,1 43 0,0
26.05.2018 12:00:00 11,7 -2,2 11 6 26 14 NNW 1030,9 33 0,0
26.05.2018 11:00:00 11,4 -0,7 10 6 27 15 N 1030,7 32 0,0
26.05.2018 10:00:00 10,4 -1,0 11 6 28 15 N 1030,7 30 0,0
26.05.2018 09:00:00 9,4 -1,1 11 6 23 13 NW 1030,5 40 0,0
26.05.2018 08:00:00 8,8 -0,8 9 5 28 15 NNW 1030,5 33 0,0
26.05.2018 07:00:00 7,8 -1,2 13 7 29 16 W 1030,3 31 0,0
26.05.2018 06:00:00 7,2 -0,5 12 7 29 16 WNW 1030,4 46 0,0
26.05.2018 05:00:00 6,5 0,2 11 6 23 12 W 1030,0 44 0,0
26.05.2018 04:00:00 5,9 0,6 11 6 26 14 W 1030,1 50 0,0
26.05.2018 03:00:00 6,0 1,5 11 6 26 14 W 1029,6 50 0,0
26.05.2018 02:00:00 6,4 3,4 11 6 27 14 W 1029,3 50 0,0
26.05.2018 01:00:00 6,9 3,9 9 5 30 16 WNW 1029,1 50 0,0
26.05.2018 00:00:00 8,3 4,3 11 6 27 15 W 1028,7 42 0,0
25.05.2018 23:00:00 9,5 3,7 6 3 29 16 W 1028,1 43 0,0
25.05.2018 22:00:00 11,6 4,1 9 5 21 11 WNW 1027,1 46 0,0
25.05.2018 21:00:00 14,4 3,8 8 5 27 15 WNW 1025,9 50 0,0
25.05.2018 20:00:00 16,0 2,0 14 7 27 14 W 1025,0 45 0,0
25.05.2018 19:00:00 17,9 -0,9 12 7 30 16 W 1024,5 44 0,0
25.05.2018 18:00:00 18,9 -1,6 17 9 41 22 W 1024,2 47 0,0
25.05.2018 17:00:00 20,0 -1,8 18 10 40 22 WNW 1023,6 37 0,0
25.05.2018 16:00:00 20,3 -4,1 15 8 32 17 W 1023,4 42 0,0
25.05.2018 15:00:00 20,9 -5,1 12 7 29 15 W 1023,2 43 0,0
25.05.2018 14:00:00 20,0 -6,6 11 6 29 15 W 1023,5 42 0,0
25.05.2018 13:00:00 19,2 -5,0 14 8 24 13 WNW 1023,4 37 0,0
25.05.2018 12:00:00 18,8 -3,4 13 7 26 14 WZW 1023,5 39 0,0
25.05.2018 11:00:00 17,8 -4,8 14 8 27 15 WZW 1023,6 44 0,0
25.05.2018 10:00:00 16,5 -3,1 13 7 22 12 WZW 1023,8 50 0,0
25.05.2018 09:00:00 16,0 0,5 4 2 14 8 ZW 1023,8 46 0,0
25.05.2018 08:00:00 14,0 0,3 6 3 12 6 WZW 1024,3 45 0,0
25.05.2018 07:00:00 11,7 1,3 2 1 7 4 Z 1024,7 42 0,0
25.05.2018 06:00:00 8,4 2,2 4 2 8 5 Z 1025,5 50 0,0
25.05.2018 05:00:00 5,1 1,9 0 0 5 3 N 1026,3 50 0,0
25.05.2018 04:00:00 3,4 1,0 0 0 4 2 N 1026,9 50 0,0
25.05.2018 03:00:00 3,6 0,8 3 2 11 6 ONO 1026,7 50 0,0
25.05.2018 02:00:00 4,2 0,5 2 1 6 3 W 1026,5 50 0,0
25.05.2018 01:00:00 4,8 -1,6 3 1 5 3 OZO 1026,6 50 0,0
25.05.2018 00:00:00 6,3 -1,6 2 1 5 3 ZO 1026,5 50 0,0
24.05.2018 23:00:00 8,0 0,0 0 0 3 1 N 1026,1 50 0,0
24.05.2018 22:00:00 11,4 -1,4 0 0 5 3 N 1025,3 50 0,0
24.05.2018 21:00:00 14,9 -3,0 2 1 7 4 ONO 1024,6 50 0,0
24.05.2018 20:00:00 17,1 -6,7 6 3 10 6 ONO 1024,1 50 0,0
24.05.2018 19:00:00 18,7 -6,1 5 3 11 6 WZW 1024,0 48 0,0
24.05.2018 18:00:00 17,9 -4,7 3 2 12 7 ONO 1024,7 40 0,0
24.05.2018 17:00:00 16,6 -2,5 9 5 14 7 ONO 1025,3 44 0,0
24.05.2018 16:00:00 16,3 -3,8 8 4 16 9 O 1025,8 38 0,0
24.05.2018 15:00:00 14,9 -3,9 8 4 15 8 Z 1026,8 41 0,0
24.05.2018 14:00:00 14,2 -5,0 9 5 17 9 ZZO 1027,3 39 0,0
24.05.2018 13:00:00 14,1 -3,7 8 4 17 9 Z 1027,7 34 0,0
24.05.2018 12:00:00 12,5 -0,1 4 2 10 6 Z 1028,6 42 0,0
24.05.2018 11:00:00 10,8 -1,6 5 3 12 6 ZZO 1029,2 45 0,0
24.05.2018 10:00:00 10,1 -1,3 6 3 11 6 ZZO 1029,6 50 0,0
24.05.2018 09:00:00 8,4 -2,0 7 4 11 6 Z 1030,2 44 0,0
24.05.2018 08:00:00 7,0 -1,2 7 4 13 7 ZZO 1030,5 50 0,0
24.05.2018 07:00:00 5,7 1,2 3 1 5 3 OZO 1030,9 44 0,0
24.05.2018 06:00:00 4,3 1,2 0 0 5 3 N 1031,6 49 0,0
24.05.2018 05:00:00 1,8 -0,5 0 0 4 2 N 1031,9 50 0,0
24.05.2018 04:00:00 -0,4 -1,7 0 0 3 2 N 1032,6 50 0,0
24.05.2018 03:00:00 -0,7 -2,3 0 0 4 2 N 1032,6 50 0,0
24.05.2018 02:00:00 -0,5 -2,4 3 1 5 3 NW 1032,7 50 0,0
24.05.2018 01:00:00 0,9 -2,0 3 1 9 5 ZO 1032,5 50 0,0
24.05.2018 00:00:00 2,2 -2,3 5 3 9 5 N 1032,2 50 0,0
23.05.2018 23:00:00 4,5 -1,3 3 2 6 4 N 1031,1 50 0,0
23.05.2018 22:00:00 6,9 -2,5 3 2 12 7 N 1030,3 50 0,0
23.05.2018 21:00:00 8,6 -3,3 4 2 16 9 N 1029,6 47 0,0
23.05.2018 20:00:00 9,8 -4,6 10 5 22 12 NNW 1029,0 49 0,0
23.05.2018 19:00:00 10,5 -4,3 9 5 26 14 NNW 1028,7 45 0,0
23.05.2018 18:00:00 10,9 -4,8 10 5 24 13 NNW 1028,3 44 0,0
23.05.2018 17:00:00 11,1 -4,6 9 5 26 14 NW 1028,4 37 0,0
23.05.2018 16:00:00 11,1 -4,6 11 6 23 12 NNW 1028,2 37 0,0
23.05.2018 15:00:00 11,8 -5,7 8 5 26 14 NNW 1027,8 36 0,0
23.05.2018 14:00:00 10,6 -5,8 8 4 26 14 N 1027,8 40 0,0
23.05.2018 13:00:00 9,8 -5,3 11 6 22 12 NW 1028,0 38 0,0
23.05.2018 12:00:00 9,1 -5,2 11 6 27 15 NW 1027,9 37 0,0
23.05.2018 11:00:00 8,2 -4,6 12 7 28 15 NNW 1027,9 32 0,0
23.05.2018 10:00:00 7,5 -4,6 12 7 32 17 NW 1028,1 38 0,0
23.05.2018 09:00:00 6,6 -3,9 14 8 36 19 NNW 1027,8 36 0,0
23.05.2018 08:00:00 5,7 -2,9 12 7 33 18 NNW 1027,7 43 0,0
23.05.2018 07:00:00 5,1 -2,7 14 8 34 18 NW 1027,6 45 0,0
23.05.2018 06:00:00 4,4 -2,0 11 6 29 16 NW 1027,4 39 0,0
23.05.2018 05:00:00 3,3 -1,1 3 2 14 7 WNW 1027,1 44 0,0
23.05.2018 04:00:00 0,3 -2,6 4 2 9 5 OZO 1027,1 48 0,0
23.05.2018 03:00:00 1,3 -2,3 3 2 10 6 ZZO 1026,6 48 0,0
23.05.2018 02:00:00 2,2 -2,0 5 3 21 11 NNW 1026,1 50 0,0
23.05.2018 01:00:00 3,2 -1,6 13 7 24 13 NW 1025,5 48 0,0
23.05.2018 00:00:00 3,4 -2,3 9 5 30 16 NW 1025,3 48 0,0
22.05.2018 23:00:00 4,2 -2,4 12 6 31 17 NW 1024,8 50 0,0
22.05.2018 22:00:00 5,4 -2,7 15 8 33 18 NW 1024,1 50 0,0
22.05.2018 21:00:00 6,3 -2,8 13 7 32 17 NW 1023,6 50 0,0
22.05.2018 20:00:00 7,3 -1,9 16 9 43 23 NW 1022,8 50 0,0
22.05.2018 19:00:00 9,5 0,9 15 8 40 22 NW 1022,0 38 0,0
22.05.2018 18:00:00 9,6 2,0 15 8 41 22 NW 1022,0 44 0,0
22.05.2018 17:00:00 11,0 4,5 16 8 38 20 NW 1021,0 39 0,0
22.05.2018 16:00:00 14,5 5,0 16 9 43 23 NW 1019,4 33 0,0
22.05.2018 15:00:00 15,7 4,4 14 7 41 22 NW 1018,4 47 0,0
22.05.2018 14:00:00 17,9 4,8 12 7 26 14 NNW 1017,4 30 0,0
22.05.2018 13:00:00 17,7 4,6 8 5 15 8 NNO 1017,4 37 0,0
22.05.2018 12:00:00 17,3 5,9 6 3 17 9 W 1018,0 34 0,0
22.05.2018 11:00:00 15,4 5,3 7 4 15 8 ZW 1018,8 39 0,0
22.05.2018 10:00:00 15,6 4,9 3 1 10 5 NO 1018,9 36 0,0
22.05.2018 09:00:00 12,8 4,7 6 3 10 5 NNO 1020,0 37 0,0
22.05.2018 08:00:00 10,1 5,3 5 3 8 5 ONO 1021,4 33 0,0
22.05.2018 07:00:00 9,5 5,7 0 0 15 8 N 1022,5 30 0,0
22.05.2018 06:00:00 7,3 5,1 3 1 5 3 NO 1023,4 23 0,0
22.05.2018 05:00:00 3,3 3,2 0 0 4 2 N 1024,4 3,9 0,0
22.05.2018 04:00:00 2,4 2,3 0 0 3 2 N 1025,1 5 0,0
22.05.2018 03:00:00 2,4 2,3 0 0 7 4 N 1025,3 7 0,0
22.05.2018 02:00:00 3,0 2,6 0 0 5 3 N 1025,4 9 0,0
22.05.2018 01:00:00 4,3 3,6 3 2 6 3 Z 1025,2 15 0,0
22.05.2018 00:00:00 5,1 3,8 2 1 8 4 WZW 1024,9 23 0,0
21.05.2018 23:00:00 7,7 4,8 7 4 10 6 ZZW 1024,5 45 0,0
21.05.2018 22:00:00 7,9 5,2 3 2 6 3 ZZO 1024,4 44 0,0
21.05.2018 21:00:00 10,3 5,3 3 2 11 6 NNO 1024,1 46 0,0
21.05.2018 20:00:00 12,1 5,0 8 5 21 12 ZW 1023,6 42 0,0
21.05.2018 19:00:00 13,6 5,2 12 6 22 12 WZW 1023,4 48 0,0
21.05.2018 18:00:00 12,7 5,4 9 5 23 13 W 1023,1 48 0,0
21.05.2018 17:00:00 12,0 5,6 10 6 21 11 WZW 1023,8 48 0,0
21.05.2018 16:00:00 11,3 5,6 11 6 24 13 WZW 1023,6 49 0,0
21.05.2018 15:00:00 11,8 5,4 11 6 29 16 ZW 1023,1 48 0,0
21.05.2018 14:00:00 12,8 5,5 15 8 36 20 WZW 1022,1 38 0,0
21.05.2018 13:00:00 12,9 5,6 20 11 37 20 WZW 1021,5 34 0,0
21.05.2018 12:00:00 12,4 5,1 14 8 35 19 WZW 1021,3 44 0,0
21.05.2018 11:00:00 11,8 5,0 19 11 32 17 ZW 1020,8 45 0,0
21.05.2018 10:00:00 11,7 4,9 16 9 28 15 ZW 1020,3 28 0,0
21.05.2018 09:00:00 11,1 4,5 14 8 24 13 ZW 1020,0 34 0,0
21.05.2018 08:00:00 10,7 4,2 16 8 26 14 ZW 1019,4 33 0,0
21.05.2018 07:00:00 10,3 3,8 16 8 26 14 ZW 1019,2 33 0,0
21.05.2018 06:00:00 10,2 3,5 11 6 22 12 ZZW 1019,0 42 0,0
21.05.2018 05:00:00 10,3 3,1 16 9 26 14 ZZW 1018,3 44 0,0
21.05.2018 04:00:00 9,5 3,5 13 7 27 15 ZW 1018,5 43 0,0
21.05.2018 03:00:00 9,7 3,4 13 7 23 12 ZW 1018,3 48 0,0
21.05.2018 02:00:00 9,6 3,1 3 2 11 6 Z 1018,3 50 0,0
21.05.2018 01:00:00 10,5 2,6 4 2 15 8 ZW 1018,0 50 0,0
21.05.2018 00:00:00 10,5 2,1 6 3 16 9 ZW 1018,3 50 0,0
20.05.2018 23:00:00 11,6 1,8 6 3 35 19 W 1018,2 50 0,0

tt = temperatuur
td = dauwpunt
ff = windsnelheid
fx = windstoten
dd = windrichting
ppp = luchtdruk
vv = zicht
rr = neerslag

Weerstations in de omgeving